Wind_Speed
3 2 2 3 3 2 3 3 4 5 6 6 6 6 7 7 7 8 8 8 8 8 8 8 9 9 10 11 12 14 15 16 19 21 24 26 28 31 33 36 38 40 41 43
1 2 3 4 4 4 4 5 6 7 7 7 8 8 8 8 9 9 10 10 10 10 11 11 12 13 13 15 16 18 19 21 22 24 26 29 31 33 36 38 40 41 43 45
3 3 4 5 5 6 6 7 8 8 8 8 9 9 9 9 10 11 12 12 13 14 14 14 15 17 18 19 21 23 25 26 27 29 31 33 35 37 39 41 43 45 47 48
4 5 6 5 6 6 7 7 8 8 9 9 10 10 11 12 12 13 14 15 16 17 17 18 19 20 21 22 24 26 28 30 31 33 35 37 39 41 42 44 46 48 49 51
5 6 6 7 7 8 8 9 9 10 10 11 12 12 13 14 15 16 17 18 18 19 20 20 21 23 25 27 28 30 31 33 35 36 38 40 41 43 45 46 47 49 51 53
7 8 8 8 8 9 9 10 11 11 12 13 14 14 15 16 17 18 19 20 21 22 23 24 25 27 29 31 33 34 35 37 39 40 42 43 44 45 47 49 50 52 53 56
10 11 10 10 11 11 12 13 13 14 15 16 16 17 18 19 20 21 22 23 24 25 26 28 29 31 33 35 36 38 39 41 43 44 46 47 48 50 51 53 54 55 56 58
12 12 13 13 13 14 14 15 16 17 17 18 19 20 21 22 23 24 25 26 27 28 30 32 33 35 36 38 40 42 43 45 47 49 50 51 52 53 55 56 57 58 59 59
14 14 15 15 16 17 17 18 19 20 21 21 22 22 23 24 25 27 28 29 31 32 34 36 37 38 40 41 44 46 48 50 51 52 54 54 55 56 56 56 57 58 58 58
16 17 18 18 19 19 20 20 21 22 23 24 24 25 26 27 28 30 31 33 34 35 37 38 40 42 44 46 48 50 51 52 54 54 55 55 56 56 56 56 56 56 56 57
17 18 19 20 21 21 22 22 23 23 25 26 27 28 29 30 31 32 34 35 37 38 40 41 43 45 47 49 51 52 53 54 55 55 55 54 55 55 55 55 55 54 53 53
19 19 20 20 22 23 24 24 25 26 27 28 30 31 32 32 34 35 36 38 39 41 43 44 46 47 49 51 52 53 54 54 54 54 53 54 54 53 54 54 53 53 52 50
21 21 22 22 23 25 26 27 27 28 30 31 32 33 34 35 36 37 38 40 42 43 44 46 47 49 50 52 53 54 54 53 53 53 53 53 53 52 51 51 52 51 50 48
24 25 25 25 26 26 27 28 29 30 31 32 33 34 35 36 38 39 40 41 43 44 46 47 49 50 51 52 53 53 53 53 53 53 53 53 53 52 51 50 48 47 46 46
26 27 27 27 28 28 29 30 31 32 33 34 35 36 37 38 39 40 41 43 44 46 47 48 49 50 51 52 53 53 53 52 52 53 53 53 52 51 50 49 47 45 44 43
28 29 29 29 30 31 32 32 33 34 35 36 37 38 38 39 40 41 42 43 45 46 47 48 49 50 51 52 52 52 52 52 53 53 53 52 51 50 49 48 46 43 41 40
30 30 31 31 32 33 33 34 35 36 36 37 38 39 39 41 41 42 42 43 45 46 47 48 50 51 51 52 52 52 52 52 52 52 52 51 50 49 48 46 43 40 37 36
32 32 32 33 34 34 35 35 36 37 37 38 38 39 40 41 41 42 43 44 46 47 48 49 50 50 51 51 51 51 51 51 51 51 50 50 49 47 45 42 39 36 34 32
33 33 33 34 35 35 36 36 37 37 37 38 38 39 40 41 42 43 44 45 46 47 48 49 50 50 50 50 50 50 50 50 50 50 49 48 47 45 42 38 35 32 30 28
34 35 35 35 36 36 37 37 38 37 37 38 38 39 40 41 42 43 44 45 46 47 48 49 50 49 49 49 50 50 50 49 49 48 48 46 44 41 38 35 32 29 27 25
35 36 37 37 37 37 37 37 37 37 37 38 38 39 41 42 42 43 44 45 46 47 48 48 49 48 48 49 48 49 49 48 48 47 45 43 41 38 35 32 29 27 25 23
37 37 37 37 38 37 37 37 37 37 38 38 39 40 41 42 42 43 43 44 46 47 47 47 48 48 48 48 48 47 47 47 46 44 42 40 37 35 32 29 26 24 22 21
37 37 37 37 37 37 37 37 38 38 38 38 39 41 42 42 42 43 43 45 45 46 46 47 48 48 48 48 47 46 46 45 43 41 39 37 35 32 29 26 24 22 20 19
37 37 37 36 36 37 37 38 38 38 38 39 40 41 41 42 42 43 43 44 44 45 46 46 47 48 47 47 46 45 43 42 41 38 36 34 32 29 26 24 22 20 18 16
37 37 37 37 37 37 37 38 38 38 39 40 40 41 41 42 42 43 43 43 44 45 45 46 47 47 46 46 44 42 40 39 37 35 33 31 29 26 23 21 19 17 15 14
37 37 37 37 37 37 38 37 37 38 39 40 40 41 41 41 42 42 43 43 44 44 45 45 46 45 45 43 41 39 38 36 34 33 31 28 26 23 21 19 17 15 14 12
37 37 37 37 37 38 38 37 38 39 40 40 40 40 40 40 41 42 42 43 43 44 44 44 44 43 43 41 39 37 35 33 31 30 28 25 23 21 19 18 16 14 13 11
Wind_Direction
76 63 36 17 10 353 333 333 341 341 339 342 343 341 343 343 342 344 347 345 340 335 326 318 312 303 297 295 290 288 286 282 277 274 270 268 267 266 264 263 263 263 262 262
341 312 309 313 314 315 315 315 318 320 322 324 324 325 326 329 329 332 334 336 329 322 319 314 310 305 300 299 296 292 291 288 286 283 279 276 274 271 269 268 267 266 265 264
305 299 305 304 302 299 299 306 311 313 312 312 315 317 316 316 317 320 320 321 322 319 317 315 311 306 303 302 299 296 295 293 290 287 284 280 278 276 275 274 273 270 268 266
305 300 304 305 301 301 302 304 307 308 309 308 308 310 309 308 309 310 311 312 313 313 313 311 310 307 305 303 301 300 298 295 293 291 289 287 283 280 279 276 275 273 270 269
298 297 300 300 297 294 292 295 297 300 302 303 304 307 306 306 306 307 308 310 311 310 308 308 308 306 305 304 303 302 301 300 297 295 292 290 287 285 282 280 279 276 274 272
295 296 299 298 297 296 296 295 296 298 299 300 301 303 304 305 305 305 306 307 308 309 309 308 307 307 306 305 304 303 302 300 299 298 296 294 291 289 286 284 282 280 277 276
294 296 297 297 297 296 297 298 297 298 299 300 300 301 302 303 303 303 304 305 306 307 307 307 307 307 306 305 305 304 303 302 300 299 297 295 293 290 288 287 284 282 279 278
294 293 293 293 295 295 295 295 296 297 298 299 299 300 300 301 302 302 302 303 304 305 305 305 305 306 306 306 306 305 304 302 301 300 299 297 295 293 291 289 286 284 282 280
295 294 293 293 294 294 293 294 296 297 298 299 299 300 300 300 301 301 301 302 302 303 304 305 305 306 306 306 307 306 305 304 303 301 300 299 297 296 294 292 290 288 285 283
294 292 293 294 295 296 296 296 297 298 299 300 301 300 300 301 301 301 301 302 302 303 304 305 306 306 307 307 307 307 306 305 304 303 302 301 300 298 297 295 293 291 289 286
298 296 294 295 294 295 297 297 298 299 300 301 302 302 302 301 302 302 303 303 303 303 304 305 306 307 307 308 308 309 308 307 306 306 305 304 302 301 299 298 296 294 292 289
303 299 297 296 296 297 298 299 300 300 300 300 301 302 303 303 303 303 304 304 304 304 305 305 307 308 309 309 310 310 310 309 308 307 307 306 305 304 302 301 298 297 295 292
302 300 297 297 297 297 298 299 299 300 299 299 300 301 302 303 303 304 304 304 305 306 306 307 308 309 310 310 311 311 311 311 310 310 309 308 307 306 305 302 301 299 296 294
299 299 299 298 298 298 298 299 299 300 300 300 300 301 302 304 304 305 306 306 306 307 308 309 310 311 311 312 313 313 313 313 313 312 311 311 310 309 307 305 303 300 297 294
298 298 298 298 298 298 298 298 299 300 300 301 301 302 303 304 305 306 307 308 308 308 309 310 312 313 314 314 314 315 314 314 314 314 314 313 312 311 310 308 306 302 297 294
298 298 297 297 298 297 298 299 299 300 300 301 302 303 304 305 306 307 308 309 310 310 311 313 314 315 316 316 316 316 316 316 316 316 316 315 314 313 312 310 307 303 299 297
297 298 297 297 298 298 298 298 300 300 300 301 302 303 304 305 306 307 308 310 311 312 313 314 315 316 317 318 318 318 318 318 318 318 317 317 316 316 314 312 309 306 302 300
296 297 297 298 298 298 298 299 300 300 300 302 302 303 304 306 307 308 310 311 312 313 314 315 316 317 318 319 319 320 319 319 319 320 319 319 318 318 317 315 312 309 305 303
296 296 297 299 300 300 300 300 300 300 301 302 302 303 305 306 308 309 311 312 312 313 315 316 318 319 319 320 321 321 322 321 321 322 322 321 320 320 319 317 315 312 309 306
297 297 298 300 301 301 301 301 300 300 301 302 303 304 306 307 309 310 311 312 313 314 316 318 319 319 320 321 322 322 323 323 323 323 324 323 322 321 320 318 316 314 311 308
298 299 299 299 301 302 302 301 301 300 301 302 303 305 307 309 310 311 312 313 314 316 317 319 320 321 322 322 323 323 324 324 324 324 325 325 325 324 323 321 318 315 312 309
298 299 300 300 301 302 302 301 301 301 301 302 304 305 307 309 310 311 313 314 315 316 318 320 321 322 323 323 324 325 325 326 326 326 326 327 327 326 325 323 321 318 314 312
297 298 299 300 301 301 302 302 301 301 302 303 305 307 308 310 311 312 313 314 315 317 319 320 321 322 323 324 324 325 326 327 328 328 328 328 328 327 327 326 324 321 317 314
295 296 297 298 300 301 301 301 302 302 303 304 306 307 309 310 311 312 313 315 316 318 320 321 322 323 323 324 325 326 327 328 329 330 330 331 330 330 329 328 327 325 323 321
294 294 295 297 299 301 302 301 302 302 304 305 306 307 308 310 311 313 314 315 317 318 320 321 322 323 324 325 325 327 328 329 331 332 332 333 333 333 333 333 332 331 330 330
291 292 294 296 297 299 300 301 302 303 305 305 306 307 309 311 312 313 314 316 317 319 320 322 323 324 325 326 326 327 328 329 331 333 334 335 336 336 336 336 337 337 335 334
289 291 293 294 296 298 299 300 302 304 305 306 306 307 309 311 312 314 315 316 318 319 321 322 324 325 326 327 327 328 329 330 330 332 334 335 336 337 337 337 337 337 337 336
Height
5653 5653 5652 5652 5651 5650 5649 5649 5648 5647 5645 5644 5642 5640 5639 5637 5635 5633 5631 5629 5627 5625 5624 5623 5622 5621 5619 5618 5617 5617 5616 5615 5614 5614 5613 5613 5612 5612 5612 5611 5611 5610 5610 5610
5655 5654 5653 5653 5652 5651 5650 5649 5648 5647 5646 5643 5642 5640 5639 5637 5635 5633 5631 5629 5626 5624 5623 5621 5620 5618 5617 5616 5614 5613 5611 5610 5608 5607 5606 5604 5603 5602 5601 5600 5598 5598 5597 5597
5656 5655 5654 5654 5652 5651 5650 5649 5647 5646 5646 5643 5642 5640 5638 5636 5634 5632 5630 5628 5626 5623 5621 5619 5618 5616 5614 5612 5610 5608 5605 5603 5600 5598 5596 5594 5592 5590 5588 5587 5585 5584 5583 5582
5656 5656 5654 5656 5652 5651 5650 5648 5647 5645 5644 5642 5641 5639 5637 5635 5633 5631 5629 5626 5624 5621 5619 5616 5614 5611 5609 5606 5604 5601 5598 5595 5592 5589 5586 5582 5580 5577 5575 5572 5570 5568 5566 5565
5656 5655 5654 5654 5652 5650 5649 5648 5646 5644 5643 5641 5639 5637 5635 5633 5631 5628 5626 5623 5621 5618 5615 5613 5610 5607 5604 5601 5597 5594 5590 5586 5582 5578 5575 5571 5567 5563 5560 5557 5554 5551 5548 5546
5655 5654 5653 5654 5651 5649 5649 5647 5645 5643 5641 5639 5637 5635 5634 5630 5627 5625 5623 5620 5617 5614 5611 5608 5605 5601 5598 5594 5590 5585 5581 5576 5571 5567 5562 5558 5553 5549 5544 5540 5537 5534 5530 5527
5654 5652 5652 5651 5649 5648 5647 5646 5643 5640 5638 5636 5634 5632 5630 5627 5624 5621 5618 5615 5612 5609 5605 5602 5598 5594 5590 5585 5581 5576 5570 5565 5559 5554 5549 5544 5538 5533 5528 5523 5519 5515 5512 5508
5652 5651 5652 5648 5646 5645 5644 5641 5639 5637 5635 5633 5630 5628 5625 5622 5619 5616 5613 5610 5606 5603 5599 5595 5591 5586 5581 5576 5571 5565 5559 5553 5547 5541 5534 5528 5522 5516 5510 5504 5499 5494 5490 5486
5651 5651 5647 5645 5643 5642 5640 5638 5635 5633 5631 5628 5626 5623 5620 5617 5614 5611 5607 5604 5600 5596 5591 5587 5582 5577 5572 5566 5560 5554 5547 5540 5533 5526 5518 5511 5504 5497 5491 5484 5478 5473 5468 5464
5646 5645 5643 5641 5639 5637 5635 5633 5630 5628 5626 5623 5620 5617 5614 5611 5607 5604 5600 5596 5592 5588 5583 5578 5572 5567 5561 5555 5548 5541 5533 5526 5518 5510 5502 5494 5486 5478 5471 5464 5458 5452 5447 5442
5642 5641 5638 5636 5634 5632 5630 5627 5625 5623 5620 5617 5614 5611 5608 5604 5600 5596 5592 5588 5584 5579 5574 5568 5562 5556 5549 5542 5535 5527 5518 5510 5502 5493 5485 5478 5469 5461 5453 5446 5438 5433 5427 5422
5638 5636 5634 5632 5629 5627 5624 5622 5619 5617 5614 5611 5607 5604 5600 5596 5592 5588 5584 5579 5574 5569 5564 5558 5551 5545 5537 5529 5521 5513 5504 5495 5487 5478 5470 5462 5454 5446 5436 5429 5421 5414 5408 5404
5633 5630 5628 5626 5623 5621 5618 5616 5613 5610 5607 5603 5600 5596 5592 5588 5584 5579 5575 5570 5565 5559 5553 5547 5540 5533 5525 5517 5508 5499 5491 5482 5473 5464 5456 5447 5439 5431 5424 5415 5406 5399 5393 5388
5627 5624 5622 5619 5617 5614 5611 5608 5605 5602 5599 5595 5591 5587 5584 5579 5575 5570 5565 5560 5554 5549 5542 5535 5528 5520 5512 5504 5495 5486 5477 5468 5460 5451 5442 5433 5424 5416 5408 5401 5394 5387 5379 5373
5621 5618 5615 5612 5610 5607 5604 5601 5598 5594 5590 5587 5583 5579 5574 5570 5565 5560 5555 5550 5544 5537 5531 5524 5516 5508 5500 5491 5482 5473 5465 5456 5447 5438 5429 5420 5411 5402 5394 5387 5380 5373 5367 5361
5613 5610 5607 5605 5602 5599 5596 5592 5589 5585 5582 5578 5574 5569 5565 5560 5555 5550 5545 5539 5533 5527 5519 5512 5504 5496 5487 5479 5470 5461 5452 5443 5434 5425 5416 5407 5398 5390 5381 5373 5366 5359 5354 5348
5605 5602 5599 5597 5594 5590 5587 5584 5580 5576 5572 5568 5564 5560 5555 5550 5545 5540 5534 5529 5522 5516 5508 5501 5493 5484 5476 5467 5458 5449 5440 5431 5422 5413 5404 5395 5386 5377 5369 5361 5354 5347 5342 5336
5597 5594 5591 5588 5584 5581 5578 5574 5570 5566 5562 5558 5554 5550 5545 5540 5535 5529 5524 5518 5511 5504 5497 5490 5482 5473 5464 5456 5447 5438 5429 5420 5411 5402 5393 5384 5375 5366 5358 5350 5343 5337 5332 5327
5588 5585 5582 5579 5575 5572 5568 5564 5560 5556 5552 5548 5544 5539 5535 5530 5525 5519 5513 5507 5500 5494 5486 5479 5470 5462 5453 5445 5436 5427 5418 5409 5400 5391 5382 5373 5364 5356 5348 5341 5334 5329 5324 5320
5579 5576 5573 5569 5566 5562 5558 5554 5550 5546 5542 5538 5533 5529 5524 5520 5514 5509 5503 5497 5490 5483 5476 5468 5460 5451 5443 5434 5426 5417 5408 5399 5390 5381 5372 5363 5354 5346 5339 5333 5327 5322 5317 5313
5569 5566 5563 5559 5556 5552 5548 5544 5540 5536 5532 5528 5524 5519 5515 5510 5504 5499 5493 5487 5480 5473 5466 5458 5450 5441 5433 5424 5416 5407 5398 5390 5381 5372 5363 5355 5346 5339 5332 5326 5321 5316 5312 5308
5558 5555 5552 5549 5546 5542 5539 5535 5531 5527 5523 5519 5514 5510 5505 5500 5494 5489 5483 5477 5470 5463 5456 5448 5440 5432 5424 5415 5406 5398 5389 5380 5372 5363 5355 5347 5339 5332 5326 5320 5315 5311 5307 5303
5547 5544 5542 5539 5536 5532 5529 5525 5521 5517 5513 5509 5505 5500 5495 5490 5484 5479 5473 5467 5460 5453 5446 5438 5430 5422 5414 5406 5397 5389 5380 5372 5363 5355 5348 5340 5333 5326 5320 5315 5310 5306 5303 5299
5537 5534 5531 5529 5526 5523 5519 5516 5512 5508 5504 5499 5495 5490 5486 5480 5475 5469 5463 5457 5450 5443 5436 5429 5421 5413 5405 5397 5388 5380 5372 5364 5356 5348 5341 5334 5327 5321 5316 5311 5307 5303 5299 5296
5527 5524 5521 5519 5516 5513 5509 5506 5502 5498 5494 5490 5485 5481 5476 5471 5465 5460 5453 5447 5441 5434 5427 5419 5412 5404 5396 5388 5380 5372 5364 5357 5350 5343 5336 5329 5323 5317 5312 5308 5304 5300 5297 5295
5517 5514 5511 5508 5506 5503 5500 5496 5492 5488 5484 5480 5475 5471 5466 5461 5456 5450 5444 5438 5431 5425 5418 5410 5403 5395 5387 5379 5372 5364 5357 5350 5344 5337 5331 5325 5320 5314 5310 5306 5302 5299 5296 5294
5506 5504 5501 5498 5495 5492 5489 5486 5482 5478 5474 5470 5465 5461 5456 5451 5446 5441 5435 5428 5422 5415 5408 5401 5394 5386 5379 5371 5364 5357 5351 5345 5339 5333 5327 5321 5316 5312 5308 5304 5301 5298 5296 5293